Check out our new BloomSky Weather System.

Active alerts

Fort Bend, TX
  Details for Fort Bend, TX River Flood Warning  +1 additional alert
Houston, TX
  Details for Houston, TX Wind Advisory
Galveston, TX
  Details for Galveston, TX Wind Advisory


Thunder radar  blitzortung!


Rain radar more information rain snow radar


Visit our other weather sites:

Template documentation
and downloads

And another site



Weather Underground History page Text

Daily Summary for February 10, 2018 Units:  Metric    English   Both
« Previous Day
Next Day »
Daily Weekly Monthly Yearly Custom
  High: Low: Average:
Temperature: -17.8 °C 7.4 °C 17 °C
Dew Point: -17.8 °C 7.1 °C 16.7 °C
Humidity: Humidity % 90 % 98 %
Wind Speed: 0 km/h 0 km/h 2.6 km/h
Wind Gust: 0 km/h - -
Wind:- - SW
Pressure: 0 hPa 1008.4 hPa -
Precipitation: 36.32 mm    
Historical Graphs
 
 
Tabular Data for February 10, 2018
Time Temperature Dew Point Pressure Wind Wind Speed Wind Gust Humidity Rainfall Rate (Hourly)
-17.8 °C -17.8 °C 0 hPa Calm     Humidity % 0 mm
00:02 19.1 °C 18.9 °C 1014.8 hPa SE 8 km/h 12.9 km/h 99 % 0.25 mm
00:07 19.1 °C 18.9 °C 1014.8 hPa SSE 3.2 km/h 12.9 km/h 99 % 0.25 mm
00:12 19 °C 18.8 °C 1014.8 hPa SW 4.8 km/h 11.3 km/h 99 % 0.25 mm
00:17 19 °C 18.8 °C 1014.8 hPa South 3.2 km/h 9.7 km/h 99 % 0.51 mm
00:22 19 °C 18.8 °C 1014.8 hPa SSE 4.8 km/h 9.7 km/h 99 % 0.51 mm
00:27 19 °C 18.8 °C 1014.4 hPa SSE 1.6 km/h 9.7 km/h 99 % 0.51 mm
00:32 18.9 °C 18.7 °C 1014.4 hPa SSE 1.6 km/h 8 km/h 99 % 0.51 mm
00:37 18.9 °C 18.7 °C 1014.4 hPa SW 3.2 km/h 6.4 km/h 99 % 0.51 mm
00:42 18.8 °C 18.6 °C 1014.4 hPa Calm   4.8 km/h 99 % 0.25 mm
00:47 18.8 °C 18.6 °C 1014.4 hPa Calm   3.2 km/h 99 % 0.25 mm
00:52 18.8 °C 18.6 °C 1014.4 hPa Calm   3.2 km/h 99 % 0.51 mm
00:57 18.8 °C 18.6 °C 1014.4 hPa SSW 1.6 km/h 3.2 km/h 99 % 0.51 mm
01:02 18.8 °C 18.6 °C 1014.4 hPa SW 1.6 km/h 3.2 km/h 99 % 0.51 mm
01:07 18.7 °C 18.5 °C 1014.4 hPa Calm   3.2 km/h 99 % 0.51 mm
01:12 18.7 °C 18.5 °C 1014.4 hPa Calm   3.2 km/h 99 % 0.51 mm
01:17 18.7 °C 18.5 °C 1014.4 hPa Calm   3.2 km/h 99 % 0.25 mm
01:22 18.7 °C 18.5 °C 1014.4 hPa Calm   3.2 km/h 99 % 0.25 mm
01:27 18.7 °C 18.5 °C 1014.1 hPa Calm   3.2 km/h 99 % 0.25 mm
01:32 18.7 °C 18.5 °C 1014.1 hPa Calm   3.2 km/h 99 % 0.25 mm
01:37 18.6 °C 18.4 °C 1013.8 hPa Calm   3.2 km/h 99 % 0.51 mm
01:42 18.6 °C 18.4 °C 1013.8 hPa Calm   3.2 km/h 99 % 0.51 mm
01:47 18.6 °C 18.4 °C 1013.8 hPa SE 1.6 km/h 1.6 km/h 99 % 0.51 mm
01:52 18.6 °C 18.4 °C 1013.8 hPa Calm   1.6 km/h 99 % 0.25 mm
01:57 18.5 °C 18.3 °C 1013.8 hPa Calm   1.6 km/h 99 % 0.25 mm
02:02 18.4 °C 18.2 °C 1013.8 hPa Calm   1.6 km/h 99 % 0.51 mm
02:07 18.4 °C 18.2 °C 1013.8 hPa Calm   1.6 km/h 99 % 0.51 mm
02:12 18.3 °C 18.1 °C 1013.8 hPa SSE 1.6 km/h   99 % 0.51 mm
02:17 18.4 °C 18.2 °C 1013.8 hPa Calm   3.2 km/h 99 % 0.51 mm
02:22 18.4 °C 18.2 °C 1013.8 hPa Calm   3.2 km/h 99 % 0.51 mm
02:27 18.4 °C 18.2 °C 1013.4 hPa SE 1.6 km/h 3.2 km/h 99 % 0.51 mm
02:32 18.3 °C 18.1 °C 1013.1 hPa Calm   1.6 km/h 99 % 0.51 mm
02:37 18.3 °C 18.1 °C 1013.1 hPa Calm   1.6 km/h 99 % 0.25 mm
02:43 18.3 °C 18.1 °C 1013.1 hPa SE 1.6 km/h 1.6 km/h 99 % 0.25 mm
02:48 18.3 °C 18.1 °C 1013.4 hPa South 1.6 km/h 1.6 km/h 99 % 0.25 mm
02:53 18.3 °C 18.1 °C 1013.4 hPa Calm   1.6 km/h 99 % 0.25 mm
02:58 18.3 °C 18.1 °C 1013.4 hPa Calm   1.6 km/h 99 % 0.25 mm
03:03 18.3 °C 18.1 °C 1013.4 hPa Calm   1.6 km/h 99 % 0.25 mm
03:08 18.3 °C 18.1 °C 1013.4 hPa Calm   1.6 km/h 99 % 1.52 mm
03:13 18.3 °C 18.1 °C 1013.1 hPa Calm   1.6 km/h 99 % 2.29 mm
03:18 18.3 °C 18.1 °C 1013.1 hPa Calm     99 % 2.79 mm
03:23 18.3 °C 18.1 °C 1013.4 hPa Calm     99 % 3.3 mm
03:28 18.3 °C 18.1 °C 1012.8 hPa NNE 1.6 km/h 1.6 km/h 99 % 5.08 mm
03:33 18.3 °C 18.1 °C 1012.8 hPa Calm   3.2 km/h 99 % 6.6 mm
03:38 18.3 °C 18.1 °C 1013.1 hPa Calm   3.2 km/h 99 % 7.87 mm
03:43 18.3 °C 18.1 °C 1012.8 hPa Calm   3.2 km/h 99 % 9.14 mm
03:48 18.3 °C 18.1 °C 1012.8 hPa Calm   1.6 km/h 99 % 9.65 mm
03:53 18.2 °C 18 °C 1012.8 hPa Calm   1.6 km/h 99 % 10.41 mm
03:58 18.2 °C 18 °C 1012.8 hPa Calm   1.6 km/h 99 % 11.18 mm
04:03 18.2 °C 18 °C 1012.8 hPa Calm   1.6 km/h 99 % 11.68 mm
04:08 18.1 °C 17.9 °C 1012.8 hPa Calm   1.6 km/h 99 % 10.92 mm
04:13 18.1 °C 17.9 °C 1012.8 hPa Calm   1.6 km/h 99 % 10.41 mm
04:18 18.1 °C 17.9 °C 1012.8 hPa Calm   1.6 km/h 99 % 10.16 mm
04:23 18.1 °C 17.9 °C 1012.4 hPa Calm   1.6 km/h 99 % 9.65 mm
04:28 18.1 °C 17.9 °C 1012.4 hPa Calm   1.6 km/h 99 % 7.87 mm
04:33 18 °C 17.8 °C 1012.4 hPa Calm   1.6 km/h 99 % 6.6 mm
04:38 18 °C 17.8 °C 1012.4 hPa Calm   1.6 km/h 99 % 6.1 mm
04:43 17.9 °C 17.7 °C 1012.8 hPa East 1.6 km/h   99 % 5.08 mm
04:48 18 °C 17.8 °C 1012.4 hPa East 1.6 km/h 1.6 km/h 99 % 5.08 mm
04:53 18 °C 17.8 °C 1012.4 hPa Calm   1.6 km/h 99 % 4.83 mm
04:58 18 °C 17.8 °C 1012.4 hPa East 1.6 km/h 1.6 km/h 99 % 4.32 mm
05:03 18 °C 17.8 °C 1012.8 hPa Calm   1.6 km/h 99 % 4.06 mm
05:08 18 °C 17.8 °C 1012.4 hPa Calm   1.6 km/h 99 % 5.84 mm
05:13 18.1 °C 18.1 °C 1012.4 hPa SE 1.6 km/h 1.6 km/h 100 % 6.35 mm
05:18 18.1 °C 18.1 °C 1012.1 hPa Calm   1.6 km/h 100 % 7.37 mm
05:23 18.1 °C 18.1 °C 1012.4 hPa NW 1.6 km/h 1.6 km/h 100 % 8.64 mm
05:28 18.2 °C 18.2 °C 1012.8 hPa Calm   3.2 km/h 100 % 9.14 mm
05:33 18.1 °C 18.1 °C 1012.8 hPa Calm   3.2 km/h 100 % 9.14 mm
05:38 18.1 °C 18.1 °C 1012.8 hPa Calm   3.2 km/h 100 % 9.4 mm
05:43 18.1 °C 18.1 °C 1012.4 hPa Calm   1.6 km/h 100 % 10.67 mm
05:48 18.1 °C 18.1 °C 1012.4 hPa Calm   1.6 km/h 100 % 11.68 mm
05:53 18.1 °C 18.1 °C 1012.4 hPa ENE 1.6 km/h 1.6 km/h 100 % 12.19 mm
05:58 18.2 °C 18.2 °C 1012.4 hPa Calm   1.6 km/h 100 % 12.19 mm
06:04 18.2 °C 18.2 °C 1012.8 hPa Calm   1.6 km/h 100 % 11.94 mm
06:09 18.1 °C 18.1 °C 1012.4 hPa Calm   1.6 km/h 100 % 10.16 mm
06:14 18.1 °C 18.1 °C 1012.4 hPa Calm   1.6 km/h 100 % 9.91 mm
06:19 18.1 °C 18.1 °C 1012.8 hPa Calm   1.6 km/h 100 % 9.4 mm
06:24 18.1 °C 18.1 °C 1012.4 hPa Calm   1.6 km/h 100 % 9.4 mm
06:29 18.1 °C 18.1 °C 1012.4 hPa Calm   1.6 km/h 100 % 9.4 mm
06:34 18.1 °C 18.1 °C 1012.4 hPa Calm   1.6 km/h 100 % 9.14 mm
06:39 18.1 °C 18.1 °C 1012.8 hPa Calm   1.6 km/h 100 % 8.64 mm
06:44 18.1 °C 18.1 °C 1012.4 hPa NNW 1.6 km/h 1.6 km/h 100 % 7.62 mm
06:49 18.1 °C 18.1 °C 1012.4 hPa Calm   3.2 km/h 100 % 6.1 mm
06:54 18.1 °C 18.1 °C 1012.4 hPa Calm   3.2 km/h 100 % 5.59 mm
06:59 18.1 °C 18.1 °C 1012.4 hPa Calm   3.2 km/h 100 % 5.33 mm
07:04 18.1 °C 18.1 °C 1012.4 hPa North 1.6 km/h 4.8 km/h 100 % 5.08 mm
07:09 18.1 °C 18.1 °C 1012.4 hPa NW 1.6 km/h 4.8 km/h 100 % 5.08 mm
07:14 18.1 °C 18.1 °C 1012.4 hPa Calm   4.8 km/h 100 % 4.57 mm
07:19 18.1 °C 18.1 °C 1012.4 hPa Calm   3.2 km/h 100 % 4.32 mm
07:24 18.1 °C 18.1 °C 1012.4 hPa Calm   3.2 km/h 100 % 3.05 mm
07:29 18.1 °C 18.1 °C 1012.4 hPa Calm   1.6 km/h 100 % 2.79 mm
07:34 18.1 °C 18.1 °C 1012.4 hPa NW 1.6 km/h 1.6 km/h 100 % 2.54 mm
07:39 18.1 °C 18.1 °C 1012.8 hPa Calm   3.2 km/h 100 % 2.29 mm
07:44 18.1 °C 18.1 °C 1012.4 hPa Calm   3.2 km/h 100 % 1.52 mm
07:49 18.1 °C 18.1 °C 1012.4 hPa Calm   3.2 km/h 100 % 1.52 mm
07:54 18.1 °C 18.1 °C 1012.4 hPa Calm   1.6 km/h 100 % 1.27 mm
07:59 18.1 °C 18.1 °C 1012.1 hPa Calm   1.6 km/h 100 % 1.27 mm
08:04 18.1 °C 18.1 °C 1012.4 hPa Calm   1.6 km/h 100 % 1.02 mm
08:09 18.1 °C 18.1 °C 1012.1 hPa Calm   1.6 km/h 100 % 0.76 mm
08:14 18.1 °C 18.1 °C 1012.1 hPa Calm   1.6 km/h 100 % 0.76 mm
08:19 18.1 °C 18.1 °C 1012.4 hPa East 1.6 km/h 1.6 km/h 100 % 0.25 mm
08:24 18.1 °C 18.1 °C 1012.4 hPa Calm   1.6 km/h 100 % 0.25 mm
08:29 18.1 °C 18.1 °C 1012.4 hPa Calm   1.6 km/h 100 % 0 mm
08:34 18.2 °C 18.2 °C 1012.4 hPa Calm   1.6 km/h 100 % 0 mm
08:39 18.2 °C 18.2 °C 1012.4 hPa Calm   3.2 km/h 100 % 0 mm
08:44 18.2 °C 18.2 °C 1012.8 hPa Calm   3.2 km/h 100 % 0 mm
08:49 18.2 °C 18.2 °C 1012.8 hPa East 1.6 km/h 3.2 km/h 100 % 0 mm
08:54 18.3 °C 18.3 °C 1012.8 hPa ESE 1.6 km/h 1.6 km/h 100 % 0 mm
08:59 18.3 °C 18.3 °C 1012.8 hPa Calm   1.6 km/h 100 % 0 mm
09:04 18.3 °C 18.3 °C 1012.8 hPa Calm   3.2 km/h 100 % 0 mm
09:09 18.4 °C 18.4 °C 1012.8 hPa East 1.6 km/h 3.2 km/h 100 % 0 mm
09:14 18.4 °C 18.4 °C 1012.8 hPa Calm   3.2 km/h 100 % 0 mm
09:19 18.4 °C 18.4 °C 1012.8 hPa ESE 1.6 km/h 3.2 km/h 100 % 0 mm
09:24 18.4 °C 18.4 °C 1012.4 hPa Calm   3.2 km/h 100 % 0 mm
09:29 18.5 °C 18.5 °C 1012.8 hPa Calm   3.2 km/h 100 % 0 mm
09:34 18.6 °C 18.6 °C 1012.8 hPa ESE 1.6 km/h 3.2 km/h 100 % 0 mm
09:39 18.6 °C 18.6 °C 1012.8 hPa Calm   3.2 km/h 100 % 0 mm
09:44 18.7 °C 18.7 °C 1012.8 hPa East 3.2 km/h 4.8 km/h 100 % 0 mm
09:49 18.7 °C 18.7 °C 1012.8 hPa Calm   4.8 km/h 100 % 0 mm
09:54 18.9 °C 18.9 °C 1012.4 hPa ESE 1.6 km/h 4.8 km/h 100 % 0 mm
09:59 19.1 °C 19.1 °C 1012.8 hPa Calm   4.8 km/h 100 % 0 mm
10:04 19.1 °C 19.1 °C 1012.8 hPa South 1.6 km/h 3.2 km/h 100 % 0 mm
10:09 19.2 °C 19.2 °C 1012.8 hPa Calm   3.2 km/h 100 % 0 mm
10:14 19.3 °C 19.3 °C 1012.8 hPa Calm   3.2 km/h 100 % 0 mm
10:19 19.4 °C 19.4 °C 1012.8 hPa SE 1.6 km/h 3.2 km/h 100 % 0 mm
10:24 19.3 °C 19.3 °C 1012.8 hPa Calm   3.2 km/h 100 % 0 mm
10:29 19.4 °C 19.4 °C 1012.8 hPa Calm   4.8 km/h 100 % 0 mm
10:34 19.7 °C 19.7 °C 1012.8 hPa Calm   4.8 km/h 100 % 0 mm
10:39 19.9 °C 19.9 °C 1012.8 hPa Calm   4.8 km/h 100 % 0 mm
10:44 20.5 °C 20.5 °C 1012.8 hPa South 1.6 km/h 3.2 km/h 100 % 0 mm
10:49 20.8 °C 20.8 °C 1012.8 hPa SSE 3.2 km/h 3.2 km/h 100 % 0 mm
10:54 20.6 °C 20.6 °C 1012.8 hPa South 1.6 km/h 4.8 km/h 100 % 0 mm
10:59 20.8 °C 20.8 °C 1012.4 hPa SE 1.6 km/h 4.8 km/h 100 % 0 mm
11:04 21 °C 21 °C 1012.4 hPa SSW 3.2 km/h 4.8 km/h 100 % 0 mm
11:09 21.1 °C 21.1 °C 1012.4 hPa SSW 1.6 km/h 4.8 km/h 100 % 0 mm
11:14 21.1 °C 21.1 °C 1012.4 hPa Calm   4.8 km/h 100 % 0 mm
11:19 21 °C 21 °C 1012.4 hPa ESE 1.6 km/h 6.4 km/h 100 % 0 mm
11:24 21 °C 21 °C 1012.4 hPa SSW 3.2 km/h 6.4 km/h 100 % 0 mm
11:29 20.7 °C 20.5 °C 1012.4 hPa SSW 3.2 km/h 6.4 km/h 99 % 0 mm
11:34 20.7 °C 20.5 °C 1012.1 hPa East 3.2 km/h 4.8 km/h 99 % 0 mm
11:39 20.7 °C 20.7 °C 1012.1 hPa SSW 1.6 km/h 4.8 km/h 100 % 0 mm
11:44 20.7 °C 20.7 °C 1012.1 hPa Calm   4.8 km/h 100 % 0 mm
11:49 20.7 °C 20.7 °C 1011.7 hPa South 3.2 km/h 4.8 km/h 100 % 0 mm
11:54 20.6 °C 20.6 °C 1011.7 hPa SW 3.2 km/h 4.8 km/h 100 % 0 mm
11:59 20.5 °C 20.3 °C 1011.7 hPa Calm   4.8 km/h 99 % 0 mm
12:04 20.6 °C 20.6 °C 1011.4 hPa Calm   4.8 km/h 100 % 0 mm
12:09 20.6 °C 20.6 °C 1011.4 hPa Calm   4.8 km/h 100 % 0 mm
12:14 20.6 °C 20.6 °C 1011.4 hPa SSW 1.6 km/h 4.8 km/h 100 % 0 mm
12:19 20.5 °C 20.5 °C 1011.1 hPa SSW 1.6 km/h 3.2 km/h 100 % 0 mm
12:24 20.4 °C 20.2 °C 1011.1 hPa Calm   3.2 km/h 99 % 0 mm
12:29 20.5 °C 20.5 °C 1011.1 hPa Calm   3.2 km/h 100 % 0 mm
12:34 20.4 °C 20.2 °C 1011.1 hPa SSW 1.6 km/h 3.2 km/h 99 % 0 mm
12:39 20.3 °C 20.1 °C 1010.7 hPa SSE 1.6 km/h 3.2 km/h 99 % 0 mm
12:44 20.3 °C 20.1 °C 1010.4 hPa Calm   4.8 km/h 99 % 0 mm
12:49 20.2 °C 20 °C 1010.4 hPa SSW 1.6 km/h 4.8 km/h 99 % 0 mm
12:54 20.2 °C 20 °C 1010.4 hPa East 4.8 km/h 4.8 km/h 99 % 0.25 mm
12:59 20.2 °C 20 °C 1010.4 hPa SSW 1.6 km/h 4.8 km/h 99 % 0.51 mm
13:05 20.3 °C 20.1 °C 1010.4 hPa SSW 1.6 km/h 6.4 km/h 99 % 0.51 mm
13:10 20.3 °C 20.1 °C 1010 hPa Calm   6.4 km/h 99 % 0.76 mm
13:15 20.5 °C 20.5 °C 1010 hPa SW 1.6 km/h 6.4 km/h 100 % 1.02 mm
13:20 20.4 °C 20.2 °C 1010 hPa Calm   4.8 km/h 99 % 1.02 mm
13:25 20.4 °C 20.2 °C 1009.7 hPa Calm   4.8 km/h 99 % 1.02 mm
13:30 20.4 °C 20.2 °C 1009.7 hPa South 1.6 km/h 4.8 km/h 99 % 1.02 mm
13:35 20.4 °C 20.2 °C 1009.7 hPa Calm   4.8 km/h 99 % 1.02 mm
13:40 20.6 °C 20.4 °C 1009.7 hPa SW 3.2 km/h 4.8 km/h 99 % 1.02 mm
13:45 20.6 °C 20.4 °C 1009.4 hPa SW 1.6 km/h 3.2 km/h 99 % 1.02 mm
13:50 20.6 °C 20.4 °C 1009.4 hPa SSW 3.2 km/h 11.3 km/h 99 % 1.02 mm
13:55 20.4 °C 20.1 °C 1009.4 hPa SSW 1.6 km/h 11.3 km/h 98 % 0.76 mm
14:00 20.4 °C 20.1 °C 1009.4 hPa Calm   11.3 km/h 98 % 0.51 mm
14:05 20.4 °C 20.1 °C 1009.4 hPa WSW 1.6 km/h 4.8 km/h 98 % 0 mm
14:10 20.4 °C 20.1 °C 1009 hPa SW 1.6 km/h 4.8 km/h 98 % 0 mm
14:15 20.6 °C 20.3 °C 1009 hPa South 3.2 km/h 4.8 km/h 98 % 0 mm
14:20 20.6 °C 20.3 °C 1009 hPa SW 1.6 km/h 4.8 km/h 98 % 0 mm
14:25 20.7 °C 20.4 °C 1009 hPa SW 3.2 km/h 4.8 km/h 98 % 0 mm
14:30 20.7 °C 20.2 °C 1009 hPa Calm   4.8 km/h 97 % 0 mm
14:35 20.8 °C 20.3 °C 1008.7 hPa SW 4.8 km/h 4.8 km/h 97 % 0 mm
14:40 20.9 °C 20.6 °C 1008.7 hPa SSW 3.2 km/h 4.8 km/h 98 % 0 mm
14:45 21.1 °C 20.6 °C 1008.7 hPa SSW 1.6 km/h 8 km/h 97 % 0 mm
14:50 21.2 °C 20.7 °C 1008.7 hPa SW 6.4 km/h 11.3 km/h 97 % 0 mm
14:55 21.3 °C 20.6 °C 1008.7 hPa SW 1.6 km/h 11.3 km/h 96 % 0 mm
15:00 21.7 °C 21 °C 1008.7 hPa SSW 4.8 km/h 11.3 km/h 96 % 0 mm
15:05 22.1 °C 21.3 °C 1008.4 hPa SSE 1.6 km/h 11.3 km/h 95 % 0 mm
15:10 22.1 °C 20.9 °C 1008.7 hPa SW 3.2 km/h 9.7 km/h 93 % 0 mm
15:15 22.1 °C 20.7 °C 1008.7 hPa SSW 3.2 km/h 9.7 km/h 92 % 0 mm
15:20 21.9 °C 20.2 °C 1008.7 hPa South 6.4 km/h 12.9 km/h 90 % 0 mm
15:25 21.7 °C 20.3 °C 1008.7 hPa WSW 3.2 km/h 12.9 km/h 92 % 0 mm
15:30 21.7 °C 20.2 °C 1008.7 hPa SW 3.2 km/h 12.9 km/h 91 % 0 mm
15:35 21.6 °C 20.2 °C 1008.7 hPa SSW 3.2 km/h 12.9 km/h 92 % 0 mm
15:40 21.6 °C 20.2 °C 1008.7 hPa SSW 3.2 km/h 8 km/h 92 % 0 mm
15:45 21.6 °C 20.4 °C 1008.7 hPa SSW 3.2 km/h 8 km/h 93 % 0 mm
15:50 21.6 °C 20.4 °C 1008.7 hPa SSE 3.2 km/h 8 km/h 93 % 0 mm
15:55 21.6 °C 20.4 °C 1009 hPa South 4.8 km/h 9.7 km/h 93 % 0 mm
16:00 21.5 °C 20.5 °C 1009 hPa SSE 6.4 km/h 9.7 km/h 94 % 0 mm
16:01 21.5 °C 20.5 °C 1009 hPa SSE 9.7 km/h 9.7 km/h 94 % 0 mm
16:06 21.4 °C 20.4 °C 1009 hPa SW 1.6 km/h 14.5 km/h 94 % 0 mm
16:11 21.3 °C 20.1 °C 1009 hPa SW 3.2 km/h 14.5 km/h 93 % 0 mm
16:16 21.3 °C 20.3 °C 1009 hPa SW 4.8 km/h 14.5 km/h 94 % 0 mm
16:21 21.3 °C 20.1 °C 1009 hPa SSW 4.8 km/h 11.3 km/h 93 % 0 mm
16:26 21.2 °C 20.2 °C 1009 hPa South 8 km/h 11.3 km/h 94 % 0 mm
16:31 21.2 °C 20 °C 1009 hPa SSW 4.8 km/h 11.3 km/h 93 % 0 mm
16:36 21.2 °C 20 °C 1008.7 hPa SSW 8 km/h 11.3 km/h 93 % 0 mm
16:41 21.1 °C 19.9 °C 1008.7 hPa SSW 4.8 km/h 12.9 km/h 93 % 0 mm
16:46 21.1 °C 19.9 °C 1009 hPa South 11.3 km/h 12.9 km/h 93 % 0 mm
16:51 21.1 °C 19.9 °C 1009 hPa South 3.2 km/h 12.9 km/h 93 % 0 mm
16:56 21 °C 19.8 °C 1008.7 hPa SW 6.4 km/h 12.9 km/h 93 % 0 mm
17:01 20.9 °C 19.7 °C 1009 hPa SSW 8 km/h 12.9 km/h 93 % 0 mm
17:06 20.9 °C 19.9 °C 1009 hPa SSW 3.2 km/h 11.3 km/h 94 % 0 mm
17:11 20.9 °C 19.9 °C 1009 hPa SSW 4.8 km/h 11.3 km/h 94 % 0 mm
17:16 20.9 °C 20.1 °C 1009 hPa SE 3.2 km/h 9.7 km/h 95 % 0 mm
17:21 20.9 °C 20.1 °C 1009.4 hPa SE 6.4 km/h 8 km/h 95 % 0 mm
17:26 20.8 °C 20 °C 1009.4 hPa SW 4.8 km/h 9.7 km/h 95 % 0 mm
17:31 20.4 °C 19.2 °C 1009.4 hPa WSW 1.6 km/h 11.3 km/h 93 % 0 mm
17:36 19.4 °C 17.9 °C 1009.7 hPa NW 12.9 km/h 12.9 km/h 91 % 0 mm
17:41 18.1 °C 16.6 °C 1009.7 hPa NW 6.4 km/h 17.7 km/h 91 % 0 mm
17:46 17.2 °C 16.1 °C 1009.7 hPa WNW 9.7 km/h 17.7 km/h 93 % 0 mm
17:51 16.6 °C 15.6 °C 1010 hPa NW 6.4 km/h 17.7 km/h 94 % 0 mm
17:56 16.1 °C 15.1 °C 1010 hPa West 3.2 km/h 14.5 km/h 94 % 0 mm
18:01 15.4 °C 14.3 °C 1010 hPa North 4.8 km/h 16.1 km/h 93 % 0 mm
18:06 14.9 °C 13.9 °C 1010 hPa North 6.4 km/h 17.7 km/h 94 % 0 mm
18:11 14.5 °C 13.7 °C 1010 hPa NNE 3.2 km/h 17.7 km/h 95 % 0 mm
18:16 14.2 °C 13.4 °C 1010 hPa NW 6.4 km/h 17.7 km/h 95 % 0 mm
18:21 13.9 °C 13.3 °C 1010 hPa NNW 6.4 km/h 16.1 km/h 96 % 0 mm
18:26 13.7 °C 13.1 °C 1010 hPa Calm   16.1 km/h 96 % 0 mm
18:31 13.6 °C 13 °C 1010.4 hPa WSW 1.6 km/h 16.1 km/h 96 % 0 mm
18:36 13.3 °C 12.7 °C 1010.4 hPa NNW 6.4 km/h 14.5 km/h 96 % 0 mm
18:41 13.2 °C 12.6 °C 1010.4 hPa North 1.6 km/h 11.3 km/h 96 % 0 mm
18:46 13.1 °C 12.6 °C 1010.4 hPa WNW 8 km/h 11.3 km/h 97 % 0 mm
18:51 12.9 °C 12.4 °C 1010.7 hPa NW 6.4 km/h 11.3 km/h 97 % 0 mm
18:56 12.8 °C 12.3 °C 1010.7 hPa NW 9.7 km/h 9.7 km/h 97 % 0 mm
19:01 12.8 °C 12.3 °C 1010.7 hPa NW 3.2 km/h 9.7 km/h 97 % 0 mm
19:04 12.7 °C 12.2 °C 1010.7 hPa NW 3.2 km/h 9.7 km/h 97 % 0 mm
19:09 12.7 °C 12.2 °C 1011.1 hPa North 8 km/h 9.7 km/h 97 % 0 mm
19:14 12.6 °C 12.1 °C 1011.1 hPa WNW 6.4 km/h 9.7 km/h 97 % 0 mm
19:19 12.6 °C 12.1 °C 1011.1 hPa NW 1.6 km/h 16.1 km/h 97 % 0 mm
19:24 12.6 °C 12.1 °C 1011.1 hPa West 1.6 km/h 16.1 km/h 97 % 0 mm
19:29 12.5 °C 12 °C 1011.1 hPa NW 8 km/h 16.1 km/h 97 % 0 mm
19:34 12.4 °C 11.9 °C 1011.1 hPa NW 6.4 km/h 12.9 km/h 97 % 0 mm
19:39 12.1 °C 11.5 °C 1011.4 hPa NNW 8 km/h 12.9 km/h 96 % 0 mm
19:44 11.8 °C 11.2 °C 1011.7 hPa North 6.4 km/h 16.1 km/h 96 % 0 mm
19:49 11.6 °C 11 °C 1011.7 hPa NW 8 km/h 16.1 km/h 96 % 0 mm
19:54 11.4 °C 10.8 °C 1011.7 hPa WNW 4.8 km/h 16.1 km/h 96 % 0 mm
19:59 11.2 °C 10.6 °C 1011.7 hPa North 16.1 km/h 16.1 km/h 96 % 0 mm
20:04 11.1 °C 10.5 °C 1011.7 hPa NW 3.2 km/h 17.7 km/h 96 % 0 mm
20:09 10.9 °C 10.4 °C 1011.7 hPa NW 8 km/h 17.7 km/h 97 % 0 mm
20:14 10.7 °C 10.1 °C 1011.7 hPa West 14.5 km/h 17.7 km/h 96 % 0 mm
20:19 10.6 °C 10.1 °C 1011.7 hPa NW 3.2 km/h 14.5 km/h 97 % 0 mm
20:24 10.5 °C 10 °C 1012.1 hPa NNE 8 km/h 14.5 km/h 97 % 0 mm
20:29 10.4 °C 9.9 °C 1012.1 hPa NW 4.8 km/h 14.5 km/h 97 % 0 mm
20:34 10.3 °C 9.8 °C 1012.1 hPa West 4.8 km/h 14.5 km/h 97 % 0 mm
20:39 10.2 °C 9.7 °C 1012.1 hPa NW 4.8 km/h 14.5 km/h 97 % 0 mm
20:44 10.1 °C 9.6 °C 1012.1 hPa NNW 3.2 km/h 11.3 km/h 97 % 0 mm
20:49 10.1 °C 9.6 °C 1012.1 hPa NNW 3.2 km/h 12.9 km/h 97 % 0 mm
20:54 9.9 °C 9.4 °C 1012.1 hPa NW 8 km/h 12.9 km/h 97 % 0 mm
20:59 9.8 °C 9.3 °C 1012.1 hPa NNW 1.6 km/h 12.9 km/h 97 % 0 mm
21:04 9.8 °C 9.3 °C 1012.1 hPa NNW 1.6 km/h 12.9 km/h 97 % 0 mm
21:09 9.7 °C 9.2 °C 1012.1 hPa NNW 6.4 km/h 12.9 km/h 97 % 0 mm
21:14 9.6 °C 9.1 °C 1012.4 hPa Calm   11.3 km/h 97 % 0 mm
21:19 9.4 °C 8.9 °C 1012.4 hPa NW 4.8 km/h 12.9 km/h 97 % 0 mm
21:24 9.3 °C 8.8 °C 1012.1 hPa NNW 1.6 km/h 12.9 km/h 97 % 0 mm
21:29 9.2 °C 8.7 °C 1012.4 hPa NNW 6.4 km/h 14.5 km/h 97 % 0 mm
21:35 9.1 °C 8.6 °C 1012.4 hPa NW 8 km/h 14.5 km/h 97 % 0 mm
21:40 9.1 °C 8.8 °C 1012.4 hPa NNW 3.2 km/h 14.5 km/h 98 % 0 mm
21:45 9 °C 8.7 °C 1012.4 hPa NNW 3.2 km/h 9.7 km/h 98 % 0 mm
21:50 8.9 °C 8.6 °C 1012.4 hPa NNW 3.2 km/h 9.7 km/h 98 % 0 mm
21:55 8.9 °C 8.6 °C 1012.1 hPa Calm   9.7 km/h 98 % 0 mm
22:00 8.9 °C 8.6 °C 1012.1 hPa NW 4.8 km/h 8 km/h 98 % 0 mm
22:05 8.9 °C 8.6 °C 1012.1 hPa NW 3.2 km/h 8 km/h 98 % 0 mm
22:10 8.9 °C 8.6 °C 1012.4 hPa NW 3.2 km/h 9.7 km/h 98 % 0 mm
22:15 8.9 °C 8.6 °C 1012.4 hPa NNW 8 km/h 9.7 km/h 98 % 0 mm
22:20 8.8 °C 8.5 °C 1012.4 hPa NNW 3.2 km/h 11.3 km/h 98 % 0 mm
22:25 8.8 °C 8.5 °C 1012.4 hPa NW 4.8 km/h 11.3 km/h 98 % 0 mm
22:30 8.8 °C 8.5 °C 1012.4 hPa NNW 3.2 km/h 11.3 km/h 98 % 0 mm
22:35 8.7 °C 8.4 °C 1012.4 hPa NNW 4.8 km/h 11.3 km/h 98 % 0 mm
22:40 8.6 °C 8.3 °C 1012.4 hPa NNW 1.6 km/h 11.3 km/h 98 % 0 mm
22:45 8.6 °C 8.3 °C 1012.4 hPa NNW 11.3 km/h 14.5 km/h 98 % 0 mm
22:50 8.4 °C 8.1 °C 1012.4 hPa WNW 4.8 km/h 14.5 km/h 98 % 0 mm
22:55 8.4 °C 8.1 °C 1012.4 hPa NW 6.4 km/h 14.5 km/h 98 % 0 mm
23:00 8.3 °C 8 °C 1012.4 hPa NW 4.8 km/h 11.3 km/h 98 % 0 mm
23:05 8.3 °C 8 °C 1012.4 hPa North 6.4 km/h 14.5 km/h 98 % 0 mm
23:10 8.1 °C 7.7 °C 1012.4 hPa NNW 8 km/h 16.1 km/h 97 % 0 mm
23:15 8 °C 7.6 °C 1012.4 hPa NW 6.4 km/h 16.1 km/h 97 % 0 mm
23:20 7.9 °C 7.5 °C 1012.8 hPa WNW 4.8 km/h 16.1 km/h 97 % 0 mm
23:25 7.7 °C 7.4 °C 1012.8 hPa NW 3.2 km/h 14.5 km/h 98 % 0 mm
23:30 7.7 °C 7.4 °C 1012.8 hPa NW 4.8 km/h 14.5 km/h 98 % 0 mm
23:35 7.6 °C 7.3 °C 1012.8 hPa North 12.9 km/h 14.5 km/h 98 % 0 mm
23:40 7.6 °C 7.3 °C 1012.8 hPa NW 3.2 km/h 14.5 km/h 98 % 0 mm
23:45 7.6 °C 7.3 °C 1012.8 hPa NW 9.7 km/h 14.5 km/h 98 % 0 mm
23:50 7.4 °C 7.1 °C 1012.8 hPa NW 6.4 km/h 14.5 km/h 98 % 0 mm
23:55 7.4 °C 7.1 °C 1012.8 hPa West 3.2 km/h 12.9 km/h 98 % 0 mm
Spring, Texas: Villages of Bridgestone
Compliments of Weather Underground - 2.75 mb

Script developed by  Jim McMurry - jmcmurry@mwt.net Adapted for the template by  Wim van der Kuil - Leuven-Template.eu

You find our weather info also at:

UK Metoffice

WeatherCloud

Weather Underground

Mid-South Weather Network

AWEKAS

Citizen Weather Observer Program (CWOP)

HAMweather, WeatherForYou, PWS Weather

Equipment we use:

Weather-station
Davis Vantage Vue

Weather-program
Meteohub

Weather-server
Debian 7.9 x86 (Guest)

Provider
DreamHost

Davis Vantage Vue

Meteohub

Debian 7.9 x86 (Guest)

DreamHost